Kenosha, WI

8:06 AM CST on February 25, 2018 (GMT -0600)
Kenosha Regional

Weather History for KENW - December, 2012

Change the Weather History Date:

Tuesday, December 18, 2012

  Actual Average Record
Temperature  
Mean Temperature 30 °F -  
Max Temperature 37 °F 31 °F 54 °F (2002)
Min Temperature 24 °F 17 °F -19 °F (1983)
Degree Days  
Heating Degree Days 34    
Moisture  
Dew Point 30 °F    
Average Humidity 88    
Maximum Humidity 93    
Minimum Humidity 75    
Precipitation  
Precipitation 0.05 in - - ()
Sea Level Pressure  
Sea Level Pressure 29.69 in    
Wind  
Wind Speed 5 mph (SSE)    
Max Wind Speed 12 mph    
Max Gust Speed 18 mph    
Visibility 3 miles    
Events Rain , Snow    
Averages and records for this station are not official NWS values.
T = Trace of Precipitation, MM = Missing Value Source: NWS Daily Summary

Daily Weather History Graph

Daily Weather History Graph

Search for Another Location

Airport or City:

Trip Planner

Search our weather history database for the weather conditions in past years. The results will help you decide how hot, cold, wet, or windy it might be!

Date:

Astronomy

Dec. 18, 2012 Rise Set
Actual Time 7:17 AM CST 4:20 PM CST
Civil Twilight 6:44 AM CST 4:52 PM CST
Nautical Twilight 6:09 AM CST 5:28 PM CST
Astronomical Twilight 5:34 AM CST 6:02 PM CST
Moon 10:49 AM CST (12/18) 10:53 PM CST (12/18)
Length of Visible Light 10h 07m
Length of Day
9h 03m
Waxing Crescent, 35% of the Moon is Illuminated
Dec 18
Waxing Crescent
Dec 19
First Quarter
Dec 28
Full
Jan 4
Last Quarter
Jan 11
New

Hourly Weather History & Observations

Time (CST) Temp. Windchill Dew Point Humidity Pressure Visibility Wind Dir Wind Speed Gust Speed Precip Events Conditions
12:53 AM 27.0 °F 23.0 °F 23.0 °F 85% 29.76 in 7.0 mi WNW 3.5 mph - N/A   Overcast
1:53 AM 27.0 °F 21.6 °F 23.0 °F 85% 29.76 in 7.0 mi West 4.6 mph - N/A   Overcast
2:53 AM 24.1 °F 19.7 °F 21.0 °F 88% 29.77 in 7.0 mi West 3.5 mph - N/A   Overcast
3:53 AM 27.0 °F 21.6 °F 23.0 °F 85% 29.76 in 7.0 mi West 4.6 mph - N/A   Overcast
4:53 AM 24.1 °F 19.7 °F 21.0 °F 88% 29.76 in 6.0 mi WSW 3.5 mph - N/A   Partly Cloudy
6:53 AM 28.9 °F 22.8 °F 25.0 °F 85% 29.78 in 5.0 mi SW 5.8 mph - N/A   Overcast
7:53 AM 30.0 °F 26.5 °F 25.0 °F 82% 29.78 in 3.0 mi SSW 3.5 mph - N/A   Haze
8:53 AM 30.0 °F 25.2 °F 25.0 °F 82% 29.77 in 4.0 mi South 4.6 mph - N/A   Haze
9:53 AM 32.0 °F 24.8 °F 26.1 °F 79% 29.78 in 5.0 mi South 8.1 mph - N/A   Haze
10:53 AM 33.1 °F 25.5 °F 26.1 °F 75% 29.74 in 7.0 mi South 9.2 mph - N/A   Overcast
11:38 AM 33.8 °F 27.0 °F 26.6 °F 75% 29.69 in 2.5 mi SSE 8.1 mph - 0.00 in Snow Light Snow
11:53 AM 32.0 °F 24.2 °F 27.0 °F 82% 29.71 in 1.0 mi South 9.2 mph - 0.00 in Snow Light Snow
12:00 PM 32.0 °F 25.6 °F 28.4 °F 87% 29.68 in 3.0 mi SSE 6.9 mph - 0.00 in Snow Light Snow
12:10 PM 32.0 °F 26.4 °F 28.4 °F 87% 29.67 in 1.0 mi SE 5.8 mph - 0.00 in Snow Light Snow
12:19 PM 32.0 °F 27.5 °F 28.4 °F 87% 29.66 in 1.0 mi ESE 4.6 mph - 0.00 in Snow Light Snow
12:45 PM 33.8 °F 28.6 °F 28.4 °F 81% 29.64 in 3.0 mi ESE 5.8 mph - 0.00 in   Overcast
12:53 PM 33.1 °F 28.7 °F 28.9 °F 85% 29.67 in 3.0 mi East 4.6 mph - 0.00 in   Overcast
1:12 PM 33.8 °F 27.0 °F 30.2 °F 87% 29.63 in 3.0 mi SE 8.1 mph - N/A   Overcast
1:53 PM 35.1 °F 28.6 °F 30.0 °F 82% 29.64 in 3.0 mi ESE 8.1 mph - 0.00 in Snow Light Snow
2:36 PM 35.6 °F 30.7 °F 30.2 °F 81% 29.63 in 3.0 mi South 5.8 mph - 0.01 in Snow Light Snow
2:53 PM 36.0 °F 29.6 °F 30.9 °F 82% 29.65 in 4.0 mi SE 8.1 mph - 0.01 in Snow Light Snow
3:26 PM 35.6 °F 30.7 °F 32.0 °F 87% 29.62 in 2.0 mi ESE 5.8 mph - 0.01 in Rain , Snow Light Snow
3:53 PM 36.0 °F 30.3 °F 33.1 °F 89% 29.65 in 2.0 mi SE 6.9 mph - 0.01 in Rain , Snow Light Snow
4:00 PM 35.6 °F 29.9 °F 33.8 °F 93% 29.62 in 1.0 mi SE 6.9 mph - 0.01 in Rain , Snow Light Snow
4:07 PM 35.6 °F 29.9 °F 33.8 °F 93% 29.62 in 1.0 mi SE 6.9 mph - 0.01 in Rain , Snow Light Snow
4:28 PM 35.6 °F 30.7 °F 33.8 °F 93% 29.62 in 1.2 mi SE 5.8 mph - 0.02 in Rain , Snow Light Snow
4:53 PM 37.0 °F 31.6 °F 34.0 °F 89% 29.65 in 1.5 mi SE 6.9 mph - 0.02 in Rain , Snow Light Snow
5:13 PM 37.4 °F 33.8 °F 35.6 °F 93% 29.63 in 1.5 mi SE 4.6 mph - 0.01 in Rain , Snow Light Snow
5:25 PM 37.4 °F 33.8 °F 35.6 °F 93% 29.63 in 1.8 mi SE 4.6 mph - 0.01 in Rain , Snow Light Snow
5:35 PM 37.4 °F 34.9 °F 35.6 °F 93% 29.63 in 2.0 mi ESE 3.5 mph - 0.01 in Rain , Snow Light Snow
5:53 PM 37.0 °F 32.4 °F 35.1 °F 93% 29.66 in 2.0 mi SE 5.8 mph - 0.01 in Rain , Snow Light Snow
6:34 PM 37.4 °F 34.9 °F 35.6 °F 93% 29.64 in 3.0 mi ESE 3.5 mph - 0.00 in   Overcast
6:53 PM 37.0 °F - 35.1 °F 93% 29.67 in 3.0 mi Calm Calm - 0.00 in   Overcast
7:04 PM 37.4 °F - 35.6 °F 93% 29.65 in 2.5 mi Calm Calm - N/A   Overcast
7:42 PM 37.4 °F - 33.8 °F 87% 29.66 in 1.8 mi Calm Calm - N/A   Overcast
7:53 PM 37.0 °F - 35.1 °F 93% 29.68 in 2.0 mi Calm Calm - N/A   Overcast
8:53 PM 35.1 °F 30.1 °F 33.1 °F 92% 29.71 in 2.0 mi NW 5.8 mph - N/A   Overcast
9:00 PM 35.6 °F 30.7 °F 33.8 °F 93% 29.69 in 2.0 mi NW 5.8 mph - N/A   Overcast
9:18 PM 35.6 °F 29.9 °F 33.8 °F 93% 29.70 in 2.0 mi NW 6.9 mph - N/A   Overcast
9:53 PM 35.1 °F 26.9 °F 33.1 °F 92% 29.74 in 2.5 mi NW 11.5 mph 17.3 mph N/A   Overcast
10:48 PM 33.8 °F 25.8 °F 32.0 °F 93% 29.75 in 3.0 mi WNW 10.4 mph 18.4 mph N/A   Overcast
10:53 PM 34.0 °F 25.5 °F 32.0 °F 92% 29.78 in 3.0 mi NW 11.5 mph - N/A   Overcast
11:20 PM 33.8 °F 28.6 °F 32.0 °F 93% 29.77 in 4.0 mi NW 5.8 mph - N/A   Overcast
11:53 PM 34.0 °F 26.6 °F 30.9 °F 89% 29.81 in 4.0 mi NW 9.2 mph - N/A   Overcast